Group: KLIN

Releases: 56.873 · Total size: 1,02 TB

First: 2012-03-25 · Last: 2023-08-20

By section: MP3/FLAC 56.873 (1,02 TB)

Release Section Group Size Files Date ↓
Khlow-Elastic-(8719729838901)-SINGLE-WEB-2020-KLIN MP3/FLAC KLIN 6,56 MB 5 2020-05-03
Dj_H-In_The_Name_Of_Love-(432539)-SINGLE-WEB-2020-KLIN MP3/FLAC KLIN 8,16 MB 5 2020-05-03
Ozkar_Ramirez-Xtasis_Dj_Club-(AGU008)-SINGLE-WEB-2020-KLIN MP3/FLAC KLIN 10,60 MB 4 2020-05-03
Dj_Jamaika-40_Dias-(1950811711598)-SINGLE-WEB-2020-KLIN MP3/FLAC KLIN 5,16 MB 4 2020-05-03
Anthony_Francis-Everybody_Does_Drugs-(DBDR026)-SINGLE-WEB-2020-KLIN MP3/FLAC KLIN 12,20 MB 5 2020-05-03
Bart_Trab-Adagio_En_Sol-(BLV7367538)-WEB-2020-KLIN MP3/FLAC KLIN 31,62 MB 8 2020-05-03
Bufinjer-Paradise-(CAT381617)-SINGLE-WEB-2020-KLIN MP3/FLAC KLIN 10,55 MB 5 2020-05-03
Hoodzy-Hardcase-(G010004355161M)-SINGLE-WEB-2020-KLIN MP3/FLAC KLIN 7,23 MB 5 2020-05-03
Michael_Ihde-Running_Back_To_You-(RLS00093193)-SINGLE-WEB-2020-KLIN MP3/FLAC KLIN 6,56 MB 5 2020-05-03
Make_You_Freak-Energy-(430912)-SINGLE-WEB-2020-KLIN MP3/FLAC KLIN 7,26 MB 5 2020-05-03
Road_Rat-Methomaniac-(430931)-SINGLE-WEB-2020-KLIN MP3/FLAC KLIN 9,86 MB 4 2020-05-03
Halogenix-Independent-(CRIT147SBP)-SINGLE-WEB-2020-KLIN MP3/FLAC KLIN 12,02 MB 4 2020-05-03
Soul_Lifters-Pavitra-(AVAW158)-SINGLE-WEB-2020-KLIN MP3/FLAC KLIN 9,63 MB 5 2020-05-03
Uri_Mood-Reality-(MOAT013)-SINGLE-WEB-2020-KLIN MP3/FLAC KLIN 13,34 MB 4 2020-05-03
Lottz-Blaze-(SOU008)-WEB-2020-KLIN MP3/FLAC KLIN 17,97 MB 5 2020-05-03
Inessa-Underwater_Samba-(DVS014)-SINGLE-WEB-2020-KLIN MP3/FLAC KLIN 16,52 MB 4 2020-05-03
Lee4Real-Love_Is_Lost-(IR092)-SINGLE-WEB-2020-KLIN MP3/FLAC KLIN 17,01 MB 4 2020-05-03
Silva-Orchid-(OMG804)-SINGLE-WEB-2020-KLIN MP3/FLAC KLIN 5,67 MB 4 2020-05-03
Viva_La_Panda-Clothes_Off-(CYM080)-SINGLE-WEB-2020-KLIN MP3/FLAC KLIN 6,36 MB 4 2020-05-03
Richie_Loop-Moov-(FU20216)-SINGLE-WEB-2020-KLIN MP3/FLAC KLIN 7,88 MB 4 2020-05-03
Jale-After-(CLVB0023)-WEB-2020-KLIN MP3/FLAC KLIN 28,24 MB 5 2020-05-03
Danielle_Apicella-Afraid-(ED1586201319)-SINGLE-WEB-2020-KLIN MP3/FLAC KLIN 6,97 MB 4 2020-05-03
Gabriel_Pappaz-One_Man_Army-(CAR048)-SINGLE-WEB-2020-KLIN MP3/FLAC KLIN 17,45 MB 4 2020-05-03
Tashi_Itoro-Connection-(COR027)-SINGLE-WEB-2020-KLIN MP3/FLAC KLIN 14,67 MB 4 2020-05-03
Carmine_Rafael_Faro-Divina-(ERM036)-WEB-2020-KLIN MP3/FLAC KLIN 20,73 MB 5 2020-05-03
Waste_Wisely-Sensuous_Scene-(ARTWRK019D)-WEB-2020-KLIN MP3/FLAC KLIN 24,26 MB 6 2020-05-03
Cele-In_My_House-(KNU025)-WEB-2020-KLIN MP3/FLAC KLIN 42,17 MB 6 2020-05-03
Creative_Ades-My_Eyes-(ABC040)-SINGLE-WEB-2020-KLIN MP3/FLAC KLIN 9,10 MB 4 2020-05-03
Raw_Underground-Darkest_Days-(PHXBLK018)-WEB-2020-KLIN MP3/FLAC KLIN 24,65 MB 5 2020-05-03
P_A_F_F_-Identity_Crisis-(OWV030)-WEB-2020-KLIN MP3/FLAC KLIN 20,47 MB 5 2020-05-03
The_Forgotten_Man-Tiamat-(NRD009)-SINGLE-WEB-2020-KLIN MP3/FLAC KLIN 21,09 MB 4 2020-05-03
Tempral-Silo-(432317)-SINGLE-WEB-2020-KLIN MP3/FLAC KLIN 14,13 MB 5 2020-05-03
Marcus_Caballero-Damla-(EXX053)-SINGLE-WEB-2020-KLIN MP3/FLAC KLIN 15,18 MB 5 2020-05-03
Quasimodo-Back_To_You-(MYR079)-SINGLE-WEB-2020-KLIN MP3/FLAC KLIN 10,58 MB 5 2020-05-03
Yung_Boi_Rob-Lottery-(G010004380407T)-SINGLE-WEB-2020-KLIN MP3/FLAC KLIN 5,07 MB 5 2020-05-03
Grand_Giro-1Out_Of_2-(10167372)-WEB-2020-KLIN MP3/FLAC KLIN 29,38 MB 6 2020-05-03
Davide_Sakure-Maschine-(10170080)-SINGLE-WEB-2020-KLIN MP3/FLAC KLIN 12,05 MB 5 2020-05-03
Curt_Lopez-Precious-(YOU003)-WEB-2020-KLIN MP3/FLAC KLIN 30,61 MB 6 2020-05-03
Ade-Replacements-(G0100042738184)-SINGLE-WEB-2020-KLIN MP3/FLAC KLIN 5,40 MB 5 2020-05-03
Alexei_Maslov-Save_Me-(NSM283)-WEB-2020-KLIN MP3/FLAC KLIN 25,88 MB 6 2020-05-03
Alan_Junior-Element-(LFR010)-SINGLE-WEB-2020-KLIN MP3/FLAC KLIN 10,87 MB 5 2020-05-03
Liddy_Rosalin-Driving_In_The_Circles-(MYR073)-SINGLE-WEB-2020-KLIN MP3/FLAC KLIN 13,06 MB 5 2020-05-03
Kjackley-My_G-(FT014)-SINGLE-WEB-2020-KLIN MP3/FLAC KLIN 16,61 MB 5 2020-05-03
Sordid_Soundz-Do_It_Funky-(BLM043)-SINGLE-WEB-2020-KLIN MP3/FLAC KLIN 13,88 MB 5 2020-05-03
Adin-Room_For_One_More-(DREEF6)-SINGLE-WEB-2020-KLIN MP3/FLAC KLIN 17,42 MB 5 2020-05-03
Alison_Candy-Fresh-(BER016)-SINGLE-WEB-2020-KLIN MP3/FLAC KLIN 13,36 MB 5 2020-05-03
Audiojunkie-Chica-(BIG006)-SINGLE-WEB-2020-KLIN MP3/FLAC KLIN 8,25 MB 5 2020-05-03
Kratehead-Wake_Up-(BTBC0023)-SINGLE-WEB-2020-KLIN MP3/FLAC KLIN 13,72 MB 5 2020-05-03
No_Culture-Waste-(NC003)-WEB-2020-KLIN MP3/FLAC KLIN 8,58 MB 6 2020-05-03
Zuflih-Lumen-(SHA2020)-SINGLE-WEB-2020-KLIN MP3/FLAC KLIN 9,47 MB 5 2020-05-03